Weather History for Linden, NJ

Change the Weather History Date:

Monday, January 7, 2013

  Actual Average (KEWR) Record (KEWR)
Temperature  
Mean Temperature 40 °F 32 °F  
Max Temperature 47 °F 39 °F 64 °F (2012)
Min Temperature 34 °F 25 °F 3 °F (2014)
Degree Days  
Heating Degree Days 24 33  
Month to date heating degree days 230  
Since 1 July heating degree days 1980  
Cooling Degree Days 0 0  
Month to date cooling degree days 0  
Year to date cooling degree days 0  
Moisture  
Dew Point 26 °F    
Average Humidity 56    
Maximum Humidity 74    
Minimum Humidity 36    
Precipitation  
Precipitation 0.00 in 0.12 in 1.44 in (1996)
Month to date precipitation 0.83  
Year to date precipitation 0.83  
Snow  
Snow 0.00 in 0.30 in 18.00 in (1996)
Month to date snowfall 1.7  
Since 1 July snowfall 7.5  
Snow Depth -    
Sea Level Pressure  
Sea Level Pressure 30.29 in    
Wind  
Wind Speed 6 mph (WNW)    
Max Wind Speed 16 mph    
Max Gust Speed 22 mph    
Visibility 10 miles    
Events      
T = Trace of Precipitation, MM = Missing Value Source: NWS Daily Summary

Daily Weather History Graph

Daily Weather History Graph

Search for Another Location

Airport:

Trip Planner

Search our weather history database for the weather conditions in past years. The results will help you decide how hot, cold, wet, or windy it might be!

Date:

Astronomy

Jan. 07, 2013 Rise Set
Actual Time 7:20 AM EST 4:46 PM EST
Civil Twilight 6:50 AM EST 5:16 PM EST
Nautical Twilight 6:16 AM EST 5:50 PM EST
Astronomical Twilight 5:43 AM EST 6:23 PM EST
Moon 2:41 AM EST (1/7) 12:55 PM EST (1/7)
Length of Visible Light 10h 26m
Length of Day
9h 25m
Waning Crescent, 23% of the Moon is Illuminated
Jan 7
Waning Crescent
Jan 11
New
Jan 18
First Quarter
Jan 26
Full
Feb 3
Last Quarter

Hourly Weather History & Observations

Time (EST) Temp. Windchill Dew Point Humidity Pressure Visibility Wind Dir Wind Speed Gust Speed Precip Events Conditions
12:15 AM 42.1 °F 38.4 °F 28.2 °F 58% 30.06 in 10.0 mi West 5.8 mph - N/A   Clear
12:35 AM 41.4 °F 35.7 °F 28.4 °F 60% 30.06 in 10.0 mi West 9.2 mph - N/A   Clear
12:55 AM 40.3 °F 34.9 °F 28.4 °F 63% 30.07 in 10.0 mi West 8.1 mph - N/A   Clear
1:15 AM 40.3 °F 34.9 °F 28.8 °F 63% 30.08 in 10.0 mi West 8.1 mph - N/A   Clear
1:35 AM 39.7 °F 36.5 °F 28.8 °F 65% 30.09 in 10.0 mi West 4.6 mph - N/A   Clear
1:55 AM 39.4 °F 34.5 °F 28.6 °F 65% 30.09 in 10.0 mi West 6.9 mph - N/A   Clear
2:15 AM 38.3 °F 33.2 °F 28.9 °F 69% 30.09 in 10.0 mi West 6.9 mph - N/A   Clear
2:35 AM 38.3 °F 32.5 °F 29.1 °F 70% 30.11 in 10.0 mi West 8.1 mph - N/A   Clear
3:15 AM 37.4 °F 31.4 °F 28.9 °F 71% 30.11 in 10.0 mi West 8.1 mph - N/A   Clear
3:35 AM 38.3 °F 33.2 °F 29.1 °F 70% 30.12 in 10.0 mi West 6.9 mph - N/A   Clear
3:55 AM 39.4 °F 37.2 °F 29.3 °F 67% 30.12 in 10.0 mi West 3.5 mph - N/A   Clear
4:15 AM 38.8 °F 35.4 °F 28.9 °F 68% 30.14 in 10.0 mi WNW 4.6 mph - N/A   Clear
4:35 AM 36.9 °F 31.4 °F 29.1 °F 74% 30.14 in 10.0 mi WNW 6.9 mph - N/A   Mostly Cloudy
4:55 AM 37.4 °F 32.8 °F 29.3 °F 73% 30.15 in 10.0 mi West 5.8 mph - N/A   Overcast
5:15 AM 36.9 °F 32.2 °F 28.8 °F 72% 30.16 in 10.0 mi WNW 5.8 mph - N/A   Mostly Cloudy
5:35 AM 36.5 °F 30.3 °F 28.9 °F 74% 30.17 in 10.0 mi West 8.1 mph - N/A   Scattered Clouds
5:55 AM 37.4 °F 31.4 °F 29.1 °F 72% 30.18 in 10.0 mi West 8.1 mph - N/A   Clear
6:15 AM 38.1 °F 32.3 °F 29.3 °F 71% 30.19 in 10.0 mi West 8.1 mph - N/A   Clear
6:35 AM 37.6 °F 32.3 °F 29.3 °F 72% 30.21 in 10.0 mi West 6.9 mph - N/A   Clear
6:55 AM 38.7 °F 32.9 °F 29.3 °F 69% 30.22 in 10.0 mi West 8.1 mph - N/A   Clear
7:15 AM 38.5 °F 35.0 °F 29.1 °F 69% 30.23 in 10.0 mi West 4.6 mph - N/A   Clear
7:35 AM 37.6 °F - 28.8 °F 70% 30.24 in 10.0 mi Calm Calm - N/A   Clear
7:55 AM 38.8 °F 35.4 °F 29.3 °F 69% 30.25 in 10.0 mi WSW 4.6 mph - N/A   Clear
8:15 AM 39.4 °F 33.8 °F 30.0 °F 69% 30.26 in 10.0 mi West 8.1 mph - N/A   Scattered Clouds
8:35 AM 40.5 °F 35.1 °F 30.2 °F 67% 30.28 in 10.0 mi West 8.1 mph - N/A   Mostly Cloudy
8:55 AM 41.0 °F 38.0 °F 30.6 °F 66% 30.29 in 10.0 mi West 4.6 mph - N/A   Scattered Clouds
9:15 AM 41.9 °F 37.5 °F 30.4 °F 64% 30.30 in 10.0 mi West 6.9 mph - N/A   Clear
9:35 AM 43.2 °F 39.0 °F 30.6 °F 61% 30.31 in 10.0 mi West 6.9 mph - N/A   Clear
9:55 AM 44.8 °F 39.4 °F 30.2 °F 57% 30.31 in 10.0 mi NW 10.4 mph - N/A   Scattered Clouds
10:35 AM 45.5 °F 38.6 °F 26.8 °F 48% 30.32 in 10.0 mi WNW 16.1 mph - N/A   Clear
11:15 AM 46.0 °F 41.0 °F 25.7 °F 45% 30.32 in 10.0 mi NNW 10.4 mph 18.4 mph N/A   Clear
11:35 AM 46.0 °F 40.6 °F 25.5 °F 45% 30.32 in 10.0 mi WNW 11.5 mph 19.6 mph N/A   Clear
11:55 AM 46.4 °F 41.1 °F 24.8 °F 43% 30.33 in 10.0 mi WNW 11.5 mph 21.9 mph N/A   Clear
12:15 PM 46.8 °F - 24.1 °F 41% 30.33 in 10.0 mi WNW 15.0 mph 18.4 mph N/A   Clear
12:55 PM 46.9 °F - 22.8 °F 39% 30.33 in 10.0 mi NNW 9.2 mph 16.1 mph N/A   Clear
1:15 PM 46.9 °F - 22.6 °F 38% 30.33 in 10.0 mi WNW 10.4 mph 17.3 mph N/A   Clear
1:35 PM 47.3 °F - 22.3 °F 37% 30.33 in 10.0 mi NW 11.5 mph - N/A   Clear
1:55 PM 47.3 °F - 22.5 °F 38% 30.33 in 10.0 mi NW 10.4 mph - N/A   Clear
2:15 PM 47.3 °F - 21.9 °F 37% 30.34 in 10.0 mi NW 8.1 mph - N/A   Clear
2:35 PM 47.7 °F - 21.7 °F 36% 30.35 in 10.0 mi NW 6.9 mph - N/A   Clear
2:55 PM 47.7 °F - 21.6 °F 36% 30.35 in 10.0 mi NW 5.8 mph - N/A   Clear
3:15 PM 47.5 °F - 21.6 °F 36% 30.36 in 10.0 mi NNW 4.6 mph - N/A   Clear
3:35 PM 47.5 °F - 22.5 °F 37% 30.37 in 10.0 mi NW 6.9 mph - N/A   Clear
3:55 PM 46.9 °F - 21.0 °F 36% 30.37 in 10.0 mi NW 4.6 mph - N/A   Clear
4:15 PM 45.9 °F 43.6 °F 22.1 °F 39% 30.38 in 10.0 mi NNW 4.6 mph - N/A   Clear
4:35 PM 45.3 °F 43.0 °F 21.9 °F 40% 30.38 in 10.0 mi NNW 4.6 mph - N/A   Clear
4:55 PM 44.2 °F 41.8 °F 22.1 °F 42% 30.39 in 10.0 mi NW 4.6 mph - N/A   Clear
5:15 PM 43.5 °F - 22.6 °F 44% 30.40 in 10.0 mi Calm Calm - N/A   Clear
5:35 PM 42.3 °F 40.5 °F 22.6 °F 46% 30.40 in 10.0 mi NW 3.5 mph - N/A   Clear
5:55 PM 43.0 °F - 22.1 °F 44% 30.40 in 10.0 mi Calm Calm - N/A   Clear
6:15 PM 41.5 °F - 22.1 °F 46% 30.40 in 10.0 mi Calm Calm - N/A   Clear
6:35 PM 41.4 °F - 22.1 °F 46% 30.40 in 10.0 mi Calm Calm - N/A   Clear
6:55 PM 40.6 °F - 22.1 °F 48% 30.40 in 10.0 mi Calm Calm - N/A   Clear
7:15 PM 40.1 °F - 22.6 °F 50% 30.41 in 10.0 mi Calm Calm - N/A   Clear
7:35 PM 39.0 °F - 22.6 °F 52% 30.41 in 10.0 mi Calm Calm - N/A   Clear
7:55 PM 37.8 °F - 22.6 °F 54% 30.41 in 10.0 mi Calm Calm - N/A   Clear
8:15 PM 37.9 °F - 22.6 °F 54% 30.40 in 10.0 mi Calm Calm - N/A   Clear
8:35 PM 36.7 °F - 22.6 °F 57% 30.40 in 10.0 mi Calm Calm - N/A   Clear
8:55 PM 35.4 °F - 23.0 °F 61% 30.40 in 10.0 mi Calm Calm - N/A   Clear
9:15 PM 36.5 °F - 23.9 °F 60% 30.40 in 10.0 mi Calm Calm - N/A   Clear
9:55 PM 35.1 °F - 23.7 °F 63% 30.40 in 10.0 mi Calm Calm - N/A   Clear
10:15 PM 35.4 °F - 24.3 °F 64% 30.41 in 10.0 mi Calm Calm - N/A   Clear
10:35 PM 35.2 °F - 23.9 °F 63% 30.41 in 10.0 mi Calm Calm - N/A   Clear
10:55 PM 34.5 °F - 23.5 °F 64% 30.41 in 10.0 mi Calm Calm - N/A   Clear
11:35 PM 34.5 °F - 23.9 °F 65% 30.41 in 10.0 mi Calm Calm - N/A   Clear
11:55 PM 34.7 °F - 24.3 °F 66% 30.40 in 10.0 mi Calm Calm - N/A   Clear